{"data":{"norad_id":69218,"epoch":"2026-09-20T00:14:55.448736Z","epoch_age_seconds":69271,"freshness":"FRESH","line1":"1 69218U 26115H   26263.01036399  .00014644  00000+0  45485-3 0  9998","line2":"2 69218  97.2810 279.0848 0002193  96.7288 263.4204 15.33457929 19210","mean_motion":15.33457929,"eccentricity":0.0002193,"inclination_deg":97.281,"raan_deg":279.0848,"arg_perigee_deg":96.7288,"mean_anomaly_deg":263.4204,"bstar":0.00045485,"rev_number":1921,"period_min":93.905412908136,"perigee_km":464.00389651436,"apogee_km":467.00551776711,"semimajor_km":6843.6417071407,"source":"CELESTRAK","updated_at":"2026-09-20T09:00:44.103076Z"}}